Houston, TX

11:57 PM CST on February 20, 2018 (GMT -0600)
Hobby

Weather History for KHOU - September, 2013

Change the Weather History Date:

Saturday, September 21, 2013

  Actual Average Record
Temperature  
Mean Temperature 76 °F 78 °F  
Max Temperature 82 °F 88 °F 100 °F (2005)
Min Temperature 70 °F 68 °F 53 °F (1983)
Degree Days  
Heating Degree Days 0 0  
Month to date heating degree days 0 0  
Since 1 July heating degree days 0 0  
Cooling Degree Days 11 13  
Month to date cooling degree days 394 335  
Year to date cooling degree days 2787 2717  
Growing Degree Days 24 (Base 50)    
Moisture  
Dew Point 69 °F    
Average Humidity 81    
Maximum Humidity 100    
Minimum Humidity 62    
Precipitation  
Precipitation 0.02 in 0.13 in 3.07 in (1958)
Month to date precipitation 4.06 2.97  
Year to date precipitation 25.26 34.84  
Sea Level Pressure  
Sea Level Pressure 29.79 in    
Wind  
Wind Speed 10 mph (NNE)    
Max Wind Speed 21 mph    
Max Gust Speed 26 mph    
Visibility 8 miles    
Events Rain    
T = Trace of Precipitation, MM = Missing Value Source: NWS Daily Summary

Daily Weather History Graph

Daily Weather History Graph

Search for Another Location

Airport or City:

Trip Planner

Search our weather history database for the weather conditions in past years. The results will help you decide how hot, cold, wet, or windy it might be!

Date:

Astronomy

Sep. 21, 2013 Rise Set
Actual Time 7:09 AM CDT 7:18 PM CDT
Civil Twilight 6:45 AM CDT 7:42 PM CDT
Nautical Twilight 6:17 AM CDT 8:10 PM CDT
Astronomical Twilight 5:49 AM CDT 8:38 PM CDT
Moon 8:45 PM CDT 9:15 AM CDT
Length of Visible Light 12h 57m
Length of Day
12h 09m
Waning Gibbous, 94% of the Moon is Illuminated
Sep 21
Waning Gibbous
Sep 26
Last Quarter
Oct 4
New
Oct 11
First Quarter
Oct 18
Full

Hourly Weather History & Observations

Time (CDT) Temp. Dew Point Humidity Pressure Visibility Wind Dir Wind Speed Gust Speed Precip Events Conditions
12:53 AM 73.9 °F 72.0 °F 93% 29.78 in 8.0 mi South 4.6 mph - 0.12 in Rain Light Rain
1:37 AM 73.4 °F 71.6 °F 94% 29.77 in 8.0 mi NW 3.5 mph - 0.08 in   Overcast
1:53 AM 73.9 °F 72.0 °F 93% 29.78 in 8.0 mi NNW 3.5 mph - 0.10 in Rain Light Rain
2:00 AM 73.4 °F 71.6 °F 94% 29.76 in 8.0 mi NNW 3.5 mph - 0.02 in Rain Rain
2:53 AM 73.9 °F 73.0 °F 97% 29.78 in 8.0 mi North 8.1 mph - 0.10 in Rain Light Rain
3:10 AM 73.4 °F 71.6 °F 94% 29.76 in 8.0 mi North 6.9 mph - 0.03 in Rain Light Rain
3:30 AM 73.4 °F 71.6 °F 94% 29.76 in 2.5 mi North 12.7 mph - 0.06 in Rain Rain
3:53 AM 73.0 °F 72.0 °F 96% 29.77 in 1.2 mi North 12.7 mph - 0.10 in Rain Light Rain
4:03 AM 73.4 °F 71.6 °F 94% 29.75 in 4.0 mi North 15.0 mph - 0.01 in   Overcast
4:53 AM 73.0 °F 71.1 °F 93% 29.77 in 6.0 mi North 13.8 mph - 0.08 in   Overcast
5:28 AM 73.4 °F 71.6 °F 94% 29.75 in 2.0 mi North 12.7 mph - 0.05 in Rain Rain
5:53 AM 72.0 °F 70.0 °F 93% 29.78 in 5.0 mi North 15.0 mph - 0.08 in Rain Light Rain
6:53 AM 72.0 °F 70.0 °F 93% 29.78 in 8.0 mi NNE 16.1 mph - 0.07 in   Overcast
7:19 AM 71.6 °F 69.8 °F 94% 29.77 in 10.0 mi NNE 16.1 mph 25.3 mph 0.03 in   Overcast
7:53 AM 72.0 °F 69.1 °F 91% 29.80 in 10.0 mi North 15.0 mph - 0.07 in   Overcast
8:01 AM 71.6 °F 69.8 °F 94% 29.79 in 5.0 mi North 11.5 mph - 0.01 in Rain Rain
8:06 AM 71.6 °F 69.8 °F 94% 29.79 in 2.0 mi North 15.0 mph - 0.01 in Rain Heavy Rain
8:38 AM 71.6 °F 69.8 °F 94% 29.79 in 5.0 mi NNE 17.3 mph 25.3 mph 0.05 in Rain Light Rain
8:53 AM 72.0 °F 69.1 °F 91% 29.81 in 7.0 mi North 19.6 mph - 0.07 in Rain Light Rain
9:53 AM 72.0 °F 69.1 °F 91% 29.83 in 5.0 mi NNE 16.1 mph - 0.07 in Rain Rain
10:53 AM 73.0 °F 70.0 °F 90% 29.83 in 4.0 mi NNE 15.0 mph - 0.11 in Rain Rain
11:29 AM 73.4 °F 69.8 °F 88% 29.83 in 10.0 mi North 13.8 mph - N/A Rain Light Rain
11:53 AM 73.9 °F 69.1 °F 85% 29.84 in 10.0 mi North 15.0 mph 21.9 mph 0.04 in Rain Light Rain
12:53 PM 73.9 °F 69.1 °F 85% 29.82 in 10.0 mi North 15.0 mph - 0.00 in   Overcast
1:53 PM 73.0 °F 69.1 °F 87% 29.82 in 10.0 mi NNE 18.4 mph - 0.00 in   Overcast
2:53 PM 75.9 °F 68.0 °F 76% 29.80 in 10.0 mi NNE 15.0 mph - N/A   Overcast
3:53 PM 77.0 °F 68.0 °F 74% 29.79 in 10.0 mi NNE 13.8 mph - N/A   Overcast
4:53 PM 77.0 °F 66.9 °F 71% 29.78 in 10.0 mi NNE 15.0 mph 19.6 mph N/A   Mostly Cloudy
5:53 PM 77.0 °F 66.0 °F 69% 29.78 in 10.0 mi NNE 17.3 mph - N/A   Mostly Cloudy
6:53 PM 78.1 °F 66.0 °F 66% 29.78 in 10.0 mi NNE 15.0 mph - N/A   Mostly Cloudy
7:53 PM 77.0 °F 66.0 °F 69% 29.79 in 10.0 mi NE 10.4 mph - N/A   Mostly Cloudy
8:53 PM 77.0 °F 64.9 °F 66% 29.81 in 10.0 mi NE 10.4 mph - N/A   Mostly Cloudy
9:53 PM 75.9 °F 66.0 °F 71% 29.82 in 10.0 mi NE 10.4 mph - N/A   Mostly Cloudy
10:53 PM 75.0 °F 66.0 °F 73% 29.81 in 10.0 mi NE 10.4 mph - N/A   Mostly Cloudy
11:53 PM 73.9 °F 66.0 °F 76% 29.81 in 10.0 mi NE 9.2 mph - N/A   Partly Cloudy